DLH405 EDDF-KJFK

Flight info

Callsign DLH405
Flight time N/A
Altitude 36000
Route OBOKA3M/25C OBOKA Z28 DIBIR DCT BUDIP DCT GISEB DCT RAVLO Y70 ABTOS N110 ERKIT DCT KUGUR DCT PIKIL/M082F370 NATG JANJO/N0476F380 N708B MIILS DCT ENE PARCH4
Aircraft A346/H-SDE2E3FGHIJ3J4J5M1RWXY/LB1D1

Departure

Time 2026-04-17 13:19
Airport Frankfurt Main Airport (EDDF)

Arrival

Time N/A
Airport John F. Kennedy International Airport (KJFK)
Time Latitude Longitude Altitude Speed Heading
2026-04-17 12:48 50.04721 8.56278 370 ft 0 kts 340°
2026-04-17 13:05 50.04720 8.56278 391 ft 1 kts 340°
2026-04-17 13:06 50.04698 8.56291 366 ft 4 kts 340°
2026-04-17 13:06 50.04674 8.56306 369 ft 4 kts 332°
2026-04-17 13:06 50.04657 8.56327 371 ft 4 kts 303°
2026-04-17 13:06 50.04651 8.56356 372 ft 4 kts 268°
2026-04-17 13:07 50.04654 8.56384 368 ft 3 kts 251°
2026-04-17 13:07 50.04663 8.56422 369 ft 3 kts 249°
2026-04-17 13:07 50.04664 8.56426 370 ft 0 kts 250°
2026-04-17 13:10 50.04663 8.56419 371 ft 4 kts 250°
2026-04-17 13:10 50.04634 8.56297 366 ft 20 kts 250°
2026-04-17 13:10 50.04579 8.56067 368 ft 20 kts 249°
2026-04-17 13:10 50.04474 8.55932 369 ft 21 kts 197°
2026-04-17 13:11 50.04347 8.55929 368 ft 0 kts 161°
2026-04-17 13:11 50.04341 8.55932 367 ft 2 kts 161°
2026-04-17 13:12 50.04311 8.55948 367 ft 7 kts 161°
2026-04-17 13:12 50.04165 8.55930 367 ft 14 kts 161°
2026-04-17 13:12 50.04088 8.55978 364 ft 9 kts 155°
2026-04-17 13:13 50.04076 8.56055 364 ft 9 kts 77°
2026-04-17 13:13 50.04121 8.56251 365 ft 32 kts 70°
2026-04-17 13:13 50.04197 8.56574 367 ft 31 kts 69°
2026-04-17 13:13 50.04261 8.56838 369 ft 21 kts 70°
2026-04-17 13:14 50.04317 8.57076 372 ft 29 kts 70°
2026-04-17 13:14 50.04393 8.57395 373 ft 32 kts 69°
2026-04-17 13:14 50.04470 8.57713 377 ft 31 kts 69°
2026-04-17 13:14 50.04510 8.57884 376 ft 2 kts 69°
2026-04-17 13:15 50.04511 8.57885 376 ft 1 kts 69°
2026-04-17 13:15 50.04534 8.57981 374 ft 17 kts 69°
2026-04-17 13:16 50.04580 8.58171 376 ft 19 kts 69°
2026-04-17 13:16 50.04627 8.58368 378 ft 20 kts 69°
2026-04-17 13:16 50.04649 8.58527 380 ft 11 kts 112°
2026-04-17 13:16 50.04630 8.58558 380 ft 0 kts 145°
2026-04-17 13:17 50.04630 8.58559 380 ft 0 kts 145°
2026-04-17 13:17 50.04586 8.58594 381 ft 14 kts 157°
2026-04-17 13:17 50.04494 8.58582 382 ft 14 kts 223°
2026-04-17 13:17 50.04440 8.58391 381 ft 38 kts 250°
2026-04-17 13:18 50.04269 8.57666 372 ft 103 kts 250°
2026-04-17 13:18 50.03952 8.56338 366 ft 158 kts 249°
2026-04-17 13:18 50.03506 8.54505 380 ft 200 kts 251°
2026-04-17 13:18 50.03006 8.52407 916 ft 206 kts 250°
2026-04-17 13:19 50.02497 8.50310 1665 ft 206 kts 247°
2026-04-17 13:19 50.01662 8.48581 2484 ft 200 kts 210°
2026-04-17 13:19 50.00330 8.48005 3044 ft 203 kts 188°
2026-04-17 13:19 49.98910 8.47755 3545 ft 207 kts 188°
2026-04-17 13:20 49.97480 8.47412 4105 ft 208 kts 192°
2026-04-17 13:20 49.96061 8.46952 4725 ft 208 kts 194°
2026-04-17 13:20 49.94627 8.46372 5161 ft 219 kts 196°
2026-04-17 13:20 49.93109 8.45696 5453 ft 236 kts 197°
2026-04-17 13:21 49.91590 8.44588 5903 ft 246 kts 220°
2026-04-17 13:21 49.90488 8.42574 6619 ft 246 kts 237°
2026-04-17 13:21 49.89611 8.40312 7261 ft 249 kts 239°
2026-04-17 13:21 49.88814 8.37840 7815 ft 258 kts 252°
2026-04-17 13:22 49.88556 8.35090 8351 ft 268 kts 271°
2026-04-17 13:22 49.88687 8.32113 8819 ft 281 kts 274°
2026-04-17 13:22 49.88888 8.29056 9494 ft 287 kts 278°
2026-04-17 13:22 49.89436 8.26074 10223 ft 290 kts 294°
2026-04-17 13:23 49.90484 8.23362 10800 ft 298 kts 305°
2026-04-17 13:23 49.91760 8.20711 11141 ft 315 kts 307°
2026-04-17 13:23 49.93152 8.17962 11459 ft 332 kts 309°
2026-04-17 13:23 49.94746 8.15247 11754 ft 349 kts 314°
2026-04-17 13:24 49.96576 8.12626 12061 ft 365 kts 318°
2026-04-17 13:24 49.98535 8.10007 12517 ft 376 kts 319°
2026-04-17 13:24 50.00534 8.07361 13229 ft 379 kts 319°
2026-04-17 13:24 50.02546 8.04692 13991 ft 381 kts 318°
2026-04-17 13:25 50.04566 8.02000 14636 ft 384 kts 318°
2026-04-17 13:25 50.06603 7.99275 15257 ft 388 kts 318°
2026-04-17 13:25 50.08658 7.96520 15877 ft 391 kts 318°
2026-04-17 13:25 50.10731 7.93735 16498 ft 395 kts 318°
2026-04-17 13:26 50.12819 7.90925 17117 ft 398 kts 318°
2026-04-17 13:26 50.14922 7.88090 17717 ft 402 kts 317°
2026-04-17 13:26 50.17046 7.85225 18356 ft 405 kts 317°
2026-04-17 13:26 50.19182 7.82338 18930 ft 407 kts 317°
2026-04-17 13:27 50.21330 7.79435 19461 ft 410 kts 317°
2026-04-17 13:27 50.23533 7.76561 19959 ft 415 kts 321°
2026-04-17 13:27 50.25916 7.73983 20480 ft 419 kts 326°
2026-04-17 13:27 50.28475 7.71771 21002 ft 423 kts 332°
2026-04-17 13:28 50.31160 7.69849 21474 ft 426 kts 334°
2026-04-17 13:28 50.33885 7.68001 21924 ft 428 kts 334°
2026-04-17 13:28 50.36630 7.66149 22367 ft 431 kts 334°
2026-04-17 13:28 50.39397 7.64267 22828 ft 434 kts 334°
2026-04-17 13:29 50.42171 7.62367 23345 ft 436 kts 334°
2026-04-17 13:29 50.44958 7.60451 23859 ft 438 kts 334°
2026-04-17 13:29 50.47759 7.58519 24291 ft 441 kts 334°
2026-04-17 13:29 50.50569 7.56579 24722 ft 443 kts 334°
2026-04-17 13:30 50.53340 7.54600 25168 ft 444 kts 332°
2026-04-17 13:30 50.56086 7.52373 25616 ft 444 kts 329°
2026-04-17 13:30 50.58757 7.49914 26046 ft 445 kts 326°
2026-04-17 13:30 50.61371 7.47293 26476 ft 446 kts 325°
2026-04-17 13:31 50.63980 7.44618 26899 ft 449 kts 325°
2026-04-17 13:31 50.66603 7.41916 27296 ft 451 kts 325°
2026-04-17 13:31 50.69240 7.39198 27653 ft 454 kts 325°
2026-04-17 13:31 50.71820 7.36301 27979 ft 456 kts 320°
2026-04-17 13:32 50.74199 7.32987 28426 ft 455 kts 314°
2026-04-17 13:32 50.76335 7.29328 29043 ft 451 kts 308°
2026-04-17 13:32 50.78228 7.25406 29708 ft 446 kts 305°
2026-04-17 13:32 50.80026 7.21421 30327 ft 443 kts 304°
2026-04-17 13:33 50.81773 7.17493 30813 ft 441 kts 304°
2026-04-17 13:33 50.83531 7.13529 31291 ft 439 kts 304°
2026-04-17 13:33 50.85283 7.09582 31787 ft 437 kts 304°
2026-04-17 13:33 50.87029 7.05646 32244 ft 435 kts 304°
2026-04-17 13:34 50.88771 7.01722 32698 ft 433 kts 304°
2026-04-17 13:34 50.90496 6.97825 33113 ft 432 kts 304°
2026-04-17 13:34 50.92220 6.93925 33582 ft 430 kts 304°
2026-04-17 13:34 50.93932 6.90047 34037 ft 428 kts 304°
2026-04-17 13:35 50.95639 6.86178 34445 ft 426 kts 305°
2026-04-17 13:35 50.97332 6.82336 34757 ft 426 kts 305°
2026-04-17 13:35 50.99051 6.78429 35021 ft 427 kts 305°
2026-04-17 13:35 51.00753 6.74556 35242 ft 429 kts 305°
2026-04-17 13:36 51.02462 6.70660 35487 ft 430 kts 305°
2026-04-17 13:36 51.04171 6.66761 35719 ft 431 kts 305°
2026-04-17 13:36 51.05886 6.62839 35935 ft 431 kts 304°